TimeCDT,TemperatureF,Dew PointF,Humidity,Sea Level PressureIn,VisibilityMPH,Wind Direction,Wind SpeedMPH,Gust SpeedMPH,PrecipitationIn,Events,Conditions,WindDirDegrees,DateUTC
12:15 AM,69.8,59.0,68,29.76,10.0,SSW,10.4,-,N/A,,Clear,200,2013-05-15 05:15:00
12:35 AM,71.6,57.2,60,29.75,10.0,SSW,13.8,-,N/A,,Clear,200,2013-05-15 05:35:00
12:55 AM,71.6,55.4,57,29.74,10.0,SSW,12.7,-,N/A,,Clear,200,2013-05-15 05:55:00
1:15 AM,69.8,55.4,60,29.74,10.0,SSW,13.8,-,N/A,,Clear,200,2013-05-15 06:15:00
1:35 AM,69.8,55.4,60,29.74,10.0,SSW,12.7,-,N/A,,Clear,210,2013-05-15 06:35:00
1:55 AM,69.8,53.6,56,29.74,10.0,SSW,15.0,-,N/A,,Clear,210,2013-05-15 06:55:00
2:15 AM,69.8,53.6,56,29.74,10.0,SSW,15.0,19.6,N/A,,Clear,210,2013-05-15 07:15:00
2:35 AM,69.8,51.8,53,29.73,10.0,SW,17.3,21.9,N/A,,Clear,220,2013-05-15 07:35:00
3:15 AM,71.6,51.8,50,29.73,10.0,SW,18.4,-,N/A,,Clear,230,2013-05-15 08:15:00
3:35 AM,71.6,50.0,46,29.73,10.0,SW,18.4,26.5,N/A,,Clear,230,2013-05-15 08:35:00
3:55 AM,71.6,50.0,46,29.73,10.0,SW,18.4,25.3,N/A,,Clear,230,2013-05-15 08:55:00
4:15 AM,71.6,50.0,46,29.73,10.0,SW,20.7,27.6,N/A,,Clear,230,2013-05-15 09:15:00
4:35 AM,71.6,50.0,46,29.74,10.0,SW,20.7,27.6,N/A,,Clear,230,2013-05-15 09:35:00
4:55 AM,71.6,50.0,46,29.74,10.0,WSW,19.6,26.5,N/A,,Clear,240,2013-05-15 09:55:00
5:15 AM,71.6,50.0,46,29.75,10.0,SW,17.3,24.2,N/A,,Clear,230,2013-05-15 10:15:00
5:35 AM,71.6,50.0,46,29.75,10.0,SW,20.7,25.3,N/A,,Clear,230,2013-05-15 10:35:00
5:55 AM,69.8,50.0,49,29.76,10.0,WSW,17.3,26.5,N/A,,Clear,240,2013-05-15 10:55:00
6:15 AM,71.6,51.8,50,29.77,10.0,WSW,17.3,24.2,N/A,,Clear,240,2013-05-15 11:15:00
6:35 AM,71.6,51.8,50,29.78,10.0,WSW,18.4,25.3,N/A,Thunderstorm,Clear,240,2013-05-15 11:35:00
6:55 AM,71.6,51.8,50,29.78,10.0,WSW,17.3,-,N/A,,Clear,240,2013-05-15 11:55:00
7:15 AM,71.6,51.8,50,29.79,10.0,WSW,15.0,24.2,N/A,,Clear,250,2013-05-15 12:15:00
7:35 AM,73.4,53.6,50,29.80,10.0,WSW,19.6,26.5,N/A,,Clear,250,2013-05-15 12:35:00
7:55 AM,73.4,53.6,50,29.80,10.0,WSW,18.4,25.3,N/A,,Clear,250,2013-05-15 12:55:00
8:15 AM,75.2,53.6,47,29.81,10.0,WSW,15.0,-,N/A,,Clear,250,2013-05-15 13:15:00
8:35 AM,77.0,51.8,41,29.82,10.0,WSW,18.4,27.6,N/A,,Clear,250,2013-05-15 13:35:00
8:55 AM,75.2,51.8,44,29.83,10.0,West,16.1,21.9,N/A,,Clear,260,2013-05-15 13:55:00
9:15 AM,75.2,53.6,47,29.83,10.0,WSW,17.3,-,N/A,,Clear,250,2013-05-15 14:15:00
9:35 AM,73.4,53.6,50,29.84,10.0,WSW,15.0,19.6,N/A,,Scattered Clouds,250,2013-05-15 14:35:00
9:55 AM,77.0,51.8,41,29.83,10.0,West,20.7,28.8,N/A,,Clear,260,2013-05-15 14:55:00
10:15 AM,75.2,51.8,44,29.83,10.0,West,8.1,17.3,N/A,,Scattered Clouds,270,2013-05-15 15:15:00
10:35 AM,73.4,55.4,53,29.83,10.0,WNW,4.6,-,N/A,Rain,Light Rain,290,2013-05-15 15:35:00
10:55 AM,71.6,55.4,57,29.85,10.0,West,9.2,16.1,N/A,,Light Drizzle,260,2013-05-15 15:55:00
11:15 AM,73.4,55.4,53,29.85,10.0,West,9.2,-,N/A,,Clear,260,2013-05-15 16:15:00
11:35 AM,75.2,53.6,47,29.85,10.0,West,9.2,-,N/A,,Clear,280,2013-05-15 16:35:00
11:55 AM,77.0,53.6,44,29.86,10.0,West,18.4,26.5,N/A,,Clear,260,2013-05-15 16:55:00
12:15 PM,78.8,51.8,39,29.85,10.0,WSW,17.3,-,N/A,,Clear,250,2013-05-15 17:15:00
12:35 PM,80.6,50.0,34,29.85,10.0,West,11.5,20.7,N/A,,Clear,260,2013-05-15 17:35:00
12:55 PM,82.4,44.6,26,29.84,10.0,West,13.8,18.4,N/A,,Clear,260,2013-05-15 17:55:00
1:15 PM,80.6,42.8,26,29.85,10.0,WSW,12.7,18.4,N/A,,Clear,250,2013-05-15 18:15:00
1:35 PM,82.4,42.8,25,29.83,10.0,WSW,10.4,19.6,N/A,,Clear,240,2013-05-15 18:35:00
1:55 PM,84.2,42.8,23,29.81,10.0,West,9.2,16.1,N/A,,Clear,260,2013-05-15 18:55:00
2:15 PM,84.2,41.0,22,29.81,10.0,WSW,12.7,17.3,N/A,,Clear,250,2013-05-15 19:15:00
2:35 PM,86.0,41.0,20,29.81,10.0,WSW,12.7,-,N/A,,Clear,240,2013-05-15 19:35:00
2:55 PM,86.0,42.8,22,29.81,10.0,West,15.0,20.7,N/A,,Clear,270,2013-05-15 19:55:00
3:15 PM,82.4,46.4,28,29.81,10.0,SW,13.8,-,N/A,,Clear,230,2013-05-15 20:15:00
3:35 PM,80.6,46.4,30,29.81,10.0,SW,12.7,-,N/A,,Clear,220,2013-05-15 20:35:00
3:55 PM,82.4,44.6,26,29.81,10.0,SW,13.8,-,N/A,,Clear,230,2013-05-15 20:55:00
4:35 PM,84.2,44.6,25,29.80,10.0,SW,13.8,17.3,N/A,,Clear,230,2013-05-15 21:35:00
4:55 PM,82.4,42.8,25,29.81,10.0,WSW,12.7,-,N/A,,Clear,240,2013-05-15 21:55:00
5:15 PM,82.4,42.8,25,29.81,10.0,WSW,11.5,-,N/A,,Clear,240,2013-05-15 22:15:00
5:35 PM,84.2,41.0,22,29.80,10.0,WSW,10.4,-,N/A,,Clear,240,2013-05-15 22:35:00
5:55 PM,82.4,41.0,23,29.80,10.0,West,8.1,-,N/A,,Clear,270,2013-05-15 22:55:00
6:15 PM,82.4,42.8,25,29.80,10.0,West,8.1,-,N/A,,Clear,270,2013-05-15 23:15:00
6:35 PM,82.4,42.8,25,29.79,10.0,West,5.8,-,N/A,,Clear,280,2013-05-15 23:35:00
6:55 PM,82.4,42.8,25,29.79,10.0,West,4.6,-,N/A,,Scattered Clouds,270,2013-05-15 23:55:00
7:15 PM,82.4,42.8,25,29.80,10.0,West,4.6,-,N/A,,Scattered Clouds,280,2013-05-16 00:15:00
7:35 PM,77.0,46.4,34,29.81,10.0,North,9.2,-,N/A,,Scattered Clouds,360,2013-05-16 00:35:00
7:55 PM,75.2,46.4,36,29.82,10.0,NNW,4.6,-,N/A,,Scattered Clouds,340,2013-05-16 00:55:00
8:15 PM,73.4,46.4,38,29.82,10.0,North,6.9,-,N/A,,Scattered Clouds,360,2013-05-16 01:15:00
8:35 PM,71.6,46.4,41,29.82,10.0,NNE,5.8,-,N/A,,Scattered Clouds,20,2013-05-16 01:35:00
8:55 PM,69.8,48.2,46,29.82,10.0,Calm,Calm,-,N/A,,Clear,0,2013-05-16 01:55:00
9:15 PM,68.0,50.0,52,29.83,10.0,NE,4.6,-,N/A,,Scattered Clouds,50,2013-05-16 02:15:00
9:35 PM,69.8,48.2,46,29.83,10.0,NNE,3.5,-,N/A,,Scattered Clouds,30,2013-05-16 02:35:00
9:55 PM,68.0,50.0,52,29.83,10.0,Calm,Calm,-,N/A,,Mostly Cloudy,0,2013-05-16 02:55:00
10:15 PM,68.0,48.2,49,29.82,10.0,Calm,Calm,-,N/A,,Scattered Clouds,0,2013-05-16 03:15:00
10:35 PM,68.0,46.4,46,29.82,10.0,Calm,Calm,-,N/A,,Clear,0,2013-05-16 03:35:00
10:55 PM,64.4,50.0,59,29.81,10.0,Calm,Calm,-,N/A,,Clear,0,2013-05-16 03:55:00
11:15 PM,66.2,48.2,52,29.82,10.0,Calm,Calm,-,N/A,,Clear,0,2013-05-16 04:15:00
11:35 PM,64.4,50.0,59,29.84,10.0,North,6.9,-,N/A,,Scattered Clouds,360,2013-05-16 04:35:00
11:55 PM,62.6,50.0,63,29.84,10.0,Calm,Calm,-,N/A,,Clear,0,2013-05-16 04:55:00